Tracking 20092 objects as of 14-Dec-2019
HD Live streaming from Space Station
objects crossing your sky now

SL-8 DEB

Track SL-8 DEB now!
10-day predictions


NORAD ID: 21211
Int'l Code: 1991-009BE
Perigee: 1,443.6 km
Apogee: 1,760.8 km
Inclination: 74.1 °
Period: 118.1 minutes
Semi major axis: 7973 km
RCS: 0.0855 m2 (small)
Launch date: February 12, 1991
Source: Commonwealth of Independent States (former USSR) (CIS)
Launch site: PLESETSK MISSILE AND SPACE COMPLEX (PKMTR)

Note: This is SATELLITE DEBRIS
aabbcc
Your satellite tracking list
Your tracking list is empty




NASA's NSSDC Master Catalog

Two Line Element Set (TLE):
1 21211U 91009BE  19346.81091883 +.00000109 +00000-0 +11285-2 0  9996
2 21211 074.0978 002.3714 0198897 024.6849 148.7595 12.19414179277257
Source of the keplerian elements: AFSPC